EHI
0 0 0 0 0 0 0 0 0 0 0 0 0 0 0 0 0 0 0 0 0 0 0 0 0 0 0 0 0 0 0 0 0 0 0 0 0 0 0 0 0 0 0 0
0 0 0 0 0 0 0 0 0 0 0 0 0 0 0 0 0 0 0 0 0 0 0 0 0 0 0 0 0 0 0 0 0 0 0 0 0 0 0 0 0 0 0 0
0 0 0 0 0 0 0 0 0 0 0 0 0 0 0 0 0 0 0 0 0 0 0 0 0 0 0 0 0 0 0 0 0 0 0 0 0 0 0 0 0 0 0 0
0 0 0 0 0 0 0 0 0 0 0 0 0 0 0 0 0 0 0 0 0 0 0 0 0 0 0 0 0 0 0 0 0 0 0 0 0 0 0 0 0 0 0 0
0 0 0 0 0 0 0 0 0 0 0 0 0 0 0 0 0 0 0 0 0 0 0 0 0 0 0 0 0 0 0 0 0 0 0 0 0 0 0 0 0 0 0 0
0 0 0 0 0 0 0 0 0 0 0 0 0 0 0 0 0 0 0 0 0 0 0 0 0 0 0 0 0 0 0 0 0 0 0 0 0 0 0 0 0 0 0 0
0 0 0 0 0 0 0 0 0 0 0 0 0 0 0 0 0 0 0 0 0 0 0 0 0 0 0 0 0 0 0 0 0 0 0 0 0 0 0 0 0 0 0 0
0 0 0 0 0 0 0 0 0 0 0 0 0 0 0 0 0 0 0 0 0 0 0 0 0 0 0 0 0 0 0 0 0 0 0 0 0 0 0 0 0 0 0 0
0 0 0 0 0 0 0 0 0 0 0 0 0 0 0 0 0 0 0 0 0 0 0 0 0 0 0 0 0 0 0 0 0 0 0 0 0 0 0 0 0 0 0 0
0 0 0 0 0 0 0 0 0 0 0 0 0 0 0 0 0 0 0 0 0 0 0 0 0 0 0 0 0 0 0 0 0 0 0 0 0 0 0 0 0 0 0 0
0 0 0 0 0 0 0 0 0 0 0 0 0 0 0 0 0 0 0 0 0 0 0 0 0 0 0 0 0 0 0 0 0 0 0 0 0 0 0 0 0 0 0 0
0 0 0 0 0 0 0 0 0 0 0 0 0 0 0 0 0 0 0 0 0 0 0 0 0 0 0 0 0 0 0 0 0 0 0 0 0 0 0 0 0 0 0 0
0 0 0 0 0 0 0 0 0 0 0 0 0 0 0 0 0 0 0 0 0 0 0 0 0 0 0 0 0 0 0 0 0 0 0 0 0 0 0 0 0 0 0 0
0 0 0 0 0 0 0 0 0 0 0 0 0 0 0 0 0 0 0 0 0 0 0 0 0 0 0 0 0 0 0 0 0 0 0 0 0 0 0 0 0 0 0 0
0 0 0 0 0 0 0 0 0 0 0 0 0 0 0 0 0 0 0 0 0 0 0 0 0 0 0 0 0 0 0 0 0 0 0 0 0 0 0 0 0 0 0 0
0 0 0 0 0 0 0 0 0 0 0 0 0 0 0 0 0 0 0 0 0 0 0 0 0 0 0 0 0 0 0 0 0 0 0 0 0 0 0 0 0 0 0 0
0 0 0 0 0 0 0 0 0 0 0 0 0 0 0 0 0 0 0 0 0 0 0 0 0 0 0 0 0 0 0 0 0 0 0 0 0 0 0 0 0 0 0 0
0 0 0 0 0 0 0 0 0 0 0 0 0 0 0 0 0 0 0 0 0 0 0 0 0 0 0 0 0 0 0 0 0 0 0 0 0 0 0 0 0 0 0 0
0 0 0 0 0 0 0 0 0 0 0 0 0 0 0 0 0 0 0 0 0 0 0 0 0 0 0 0 0 0 0 0 0 0 0 0 0 0 0 0 0 0 0 0
0 0 0 0 0 0 0 0 0 0 0 0 0 0 0 0 0 0 0 0 0 0 0 0 0 0 0 0 0 0 0 0 0 0 0 0 0 0 0 0 0 0 0 0
0 0 0 0 0 0 0 0 0 0 0 0 0 0 0 0 0 0 0 0 0 0 0 0 0 0 0 0 0 0 0 0 0 0 0 0 0 0 0 0 0 0 0 0
0 0 0 0 0 0 0 0 0 0 0 0 0 0 0 0 0 0 0 0 0 0 0 0 0 0 0 0 0 0 0 0 0 0 0 0 0 0 0 0 0 0 0 0
0 0 0 0 0 0 0 0 0 0 0 0 0 0 0 0 0 0 0 0 0 0 0 0 0 0 0 0 0 0 0 0 0 0 0 0 0 0 0 0 0 0 0 0
0 0 0 0 0 0 0 0 0 0 0 0 0 0 0 0 0 0 0 0 0 0 0 0 0 0 0 0 0 0 0 0 0 0 0 0 0 0 0 0 0 0 0 0
0 0 0 0 0 0 0 0 0 0 0 0 0 0 0 0 0 0 0 0 0 0 0 0 0 0 0 0 0 0 0 0 0 0 0 0 0 0 0 0 0 0 0 0
0 0 0 0 0 0 0 0 0 0 0 0 0 0 0 0 0 0 0 0 0 0 0 0 0 0 0 0 0 0 0 0 0 0 0 0 0 0 0 0 0 0 0 0
Wind_Speed
1 2 1 1 2 3 4 5 6 5 2 3 7 9 7 4 4 5 4 3 2 2 0 2 2 2 2 2 2 2 2 1 1 1 0 0 0 0 0 0 1 1 1 0
1 0 2 3 3 4 4 5 5 4 2 4 7 10 6 5 4 3 3 2 2 2 1 2 2 3 3 3 2 1 2 2 1 1 1 1 1 1 1 0 0 0 1 1
1 2 2 2 3 4 3 3 5 6 6 5 5 8 4 3 2 2 1 1 1 0 1 0 1 2 2 3 3 2 2 2 2 2 1 1 1 1 0 0 0 0 0 0
1 1 2 1 2 2 4 3 4 5 5 4 2 6 4 3 2 1 1 1 1 1 0 0 1 1 2 3 3 3 2 2 2 1 1 0 1 1 1 1 1 0 0 0
0 1 1 1 2 2 2 4 5 5 4 5 4 5 7 2 2 2 2 1 1 1 0 0 1 1 2 2 3 3 2 2 2 2 1 1 1 1 1 1 1 1 0 0
0 1 1 1 2 1 3 4 4 3 1 5 5 5 6 2 3 2 1 1 1 1 1 1 2 2 2 2 2 3 3 3 3 2 1 1 1 1 1 1 1 1 1 0
3 3 2 0 1 0 1 2 2 2 2 6 2 4 7 2 1 0 1 1 1 0 1 1 1 2 2 2 2 2 3 3 3 3 2 2 2 2 3 2 2 2 1 1
2 2 4 2 1 1 2 1 2 3 4 3 2 6 5 2 2 2 2 1 2 1 1 1 1 1 1 1 2 2 3 3 3 3 3 3 2 1 1 1 2 2 2 1
2 2 2 1 0 0 1 2 1 1 4 5 6 5 2 1 2 2 1 1 2 2 1 1 1 1 1 1 1 2 3 3 3 3 3 3 2 2 1 1 1 1 1 1
2 3 2 2 1 1 1 0 1 2 3 6 6 5 4 2 2 2 1 1 2 2 2 2 2 2 1 1 2 2 2 3 3 3 3 3 3 2 1 1 1 1 1 1
1 2 2 2 5 5 3 2 3 3 4 4 5 6 1 2 1 1 2 2 2 2 2 2 2 2 2 2 2 2 2 3 3 3 3 3 3 2 2 1 1 1 1 1
2 2 4 4 1 1 3 4 5 5 6 5 5 9 1 2 1 0 2 2 2 2 2 2 2 2 2 2 2 2 2 3 3 3 3 3 3 2 2 2 1 1 1 1
3 3 2 2 1 1 3 4 5 4 3 6 7 9 1 1 1 1 2 3 2 2 2 2 2 2 2 2 2 2 2 3 3 3 3 3 3 2 2 2 2 1 1 1
2 4 7 8 4 3 5 5 5 5 6 8 11 12 8 5 4 4 3 3 3 2 2 2 2 2 2 2 2 2 2 3 3 3 3 3 3 3 2 2 2 2 2 1
3 5 7 9 9 6 8 8 8 11 11 11 12 12 12 7 5 4 4 3 4 4 3 3 3 3 2 2 2 2 2 2 3 3 3 4 3 3 2 2 2 2 2 2
3 4 4 8 8 8 12 12 12 13 13 14 15 16 9 5 3 3 3 3 4 5 4 4 5 4 3 3 3 3 3 3 3 3 3 4 3 3 3 3 2 2 2 2
4 4 4 7 4 6 13 13 14 11 11 10 14 13 5 5 4 4 4 4 5 5 5 5 5 4 4 3 3 3 3 3 3 3 3 4 3 3 3 3 3 3 3 2
6 5 4 5 3 12 10 2 7 9 10 9 8 6 4 5 4 4 3 3 5 5 6 6 5 4 3 3 3 3 3 3 3 3 3 4 4 4 4 3 3 3 3 3
5 6 4 4 7 12 6 3 4 6 8 7 8 8 5 3 3 3 1 2 4 5 5 5 4 3 2 2 2 2 2 3 3 3 3 4 4 4 4 4 4 3 3 3
2 4 5 5 6 9 6 2 1 1 6 3 3 5 3 2 3 4 3 3 4 4 4 3 2 1 1 1 1 1 2 3 3 4 4 4 4 4 4 4 4 4 4 4
4 5 8 8 9 10 3 2 3 4 7 1 1 2 2 3 5 4 4 4 3 4 4 3 2 2 2 1 1 2 3 3 4 4 4 4 4 4 4 4 4 4 4 4
8 8 8 7 9 11 3 4 6 5 1 1 1 1 2 4 4 3 3 4 3 4 3 3 2 3 2 1 1 3 4 4 3 4 4 4 4 4 4 4 4 4 4 4
8 8 6 8 9 2 4 4 3 1 1 2 1 2 2 3 4 4 3 4 3 3 3 2 2 3 3 2 2 3 4 3 3 3 4 4 4 4 3 3 4 3 3 3
5 3 4 6 7 4 3 3 2 2 3 2 2 3 2 4 4 4 4 4 3 3 3 3 2 3 4 3 3 3 4 3 3 4 4 3 3 3 3 3 3 3 3 3
4 4 4 6 6 4 3 3 3 2 2 2 2 3 3 3 4 4 4 4 3 3 3 2 2 3 4 4 4 4 3 3 3 4 3 3 3 3 3 3 3 3 3 4
4 6 6 8 5 4 3 1 1 2 2 2 3 3 3 3 4 4 4 4 3 3 3 3 3 4 4 4 4 4 3 3 3 3 3 3 3 3 3 3 3 5 6 7
Wind_Direction
102 58 34 338 297 301 313 305 302 306 326 293 267 270 272 265 234 241 246 244 246 260 304 54 39 37 21 6 353 352 345 354 19 357 332 285 88 345 19 24 18 21 19 337
104 39 308 332 347 319 305 302 299 306 342 306 283 277 266 253 237 228 243 263 280 308 4 36 29 22 7 348 339 345 342 333 318 312 303 255 195 220 215 244 27 51 48 18
119 34 352 353 355 321 300 299 306 310 312 268 279 284 242 237 227 227 227 264 312 317 212 17 15 8 359 349 337 328 330 332 344 344 359 32 42 33 5 326 354 351 336 69
40 16 1 339 328 312 290 334 313 309 307 289 279 293 270 251 243 267 306 356 335 332 6 50 24 357 352 344 339 340 345 348 350 354 340 202 214 229 242 239 207 216 289 357
40 40 342 297 310 302 296 327 303 281 271 289 250 253 275 221 269 265 253 266 278 271 260 46 34 360 8 359 353 344 347 344 343 342 313 271 250 245 241 220 165 155 162 28
205 72 356 335 339 331 324 308 283 259 238 261 229 215 274 218 240 277 270 268 303 10 5 24 38 28 17 10 5 360 351 341 339 335 319 271 248 244 225 206 189 183 181 213
211 183 154 355 317 198 340 4 340 306 230 243 207 220 251 230 113 94 274 309 335 45 52 24 27 359 350 360 359 358 354 338 334 332 321 300 272 240 225 210 200 189 186 209
259 235 163 162 178 207 239 178 189 252 271 293 266 239 244 140 83 60 62 43 11 9 13 341 324 331 329 343 349 346 347 343 335 331 323 318 306 263 238 231 219 201 204 205
255 247 109 136 15 188 217 223 243 255 281 279 255 249 250 63 33 38 38 29 344 339 339 321 327 333 326 325 324 331 337 340 335 329 325 320 321 308 288 259 246 219 197 195
295 270 210 152 174 245 266 210 126 188 255 268 265 249 247 241 264 308 324 311 310 319 318 322 332 342 345 347 343 345 340 335 335 336 329 323 327 320 310 299 265 248 217 191
261 226 230 195 200 195 179 196 210 230 239 247 273 263 218 172 191 239 262 286 298 303 299 309 322 335 349 1 4 350 342 343 342 338 332 328 327 326 323 308 296 287 272 226
201 219 250 228 158 119 197 204 185 204 242 233 254 266 246 134 155 243 301 313 313 302 306 316 325 344 350 344 344 342 340 342 337 335 330 321 318 319 320 310 302 294 276 260
161 181 263 267 280 259 237 226 217 218 245 240 244 261 269 43 288 286 302 307 308 305 311 315 327 331 326 322 325 328 333 333 333 335 329 319 317 315 313 313 312 303 284 278
181 212 218 239 249 198 228 224 207 200 227 246 242 258 278 286 282 294 295 292 291 291 299 308 302 304 308 308 307 315 321 329 327 329 323 311 308 306 304 312 312 311 305 282
180 235 243 260 272 259 243 236 216 217 229 241 257 259 270 273 274 285 289 303 307 305 306 305 295 290 296 304 305 305 308 319 321 321 315 309 313 312 310 308 310 310 305 291
195 242 267 266 256 257 260 245 231 233 238 248 262 269 271 283 297 302 306 303 298 294 294 298 301 300 295 295 298 300 302 310 312 307 305 313 321 323 322 317 312 307 295 292
192 204 241 264 264 283 259 234 222 227 225 225 244 255 275 287 284 280 283 289 288 296 297 292 285 281 282 280 287 281 287 302 302 303 312 317 318 321 324 323 322 313 303 293
190 204 233 266 281 249 246 203 201 220 238 231 244 263 270 267 273 268 269 286 297 301 299 294 289 287 286 286 294 295 297 292 293 299 307 315 318 316 318 319 314 312 310 299
201 198 224 234 252 267 259 216 189 211 257 235 235 256 274 302 311 280 296 307 287 288 292 288 280 274 276 277 286 293 295 296 295 295 299 305 307 308 310 306 303 305 301 293
200 197 218 228 242 251 251 201 163 115 271 266 220 247 267 325 282 271 331 331 316 306 303 303 309 315 298 290 289 282 287 289 286 288 292 297 298 295 294 294 296 297 292 285
183 204 219 231 245 260 247 195 136 193 252 305 196 239 233 229 237 275 317 324 320 317 320 328 333 317 292 294 290 272 275 271 280 290 292 293 294 290 288 291 294 292 290 291
189 194 208 210 231 248 169 147 189 220 285 2 328 269 251 258 279 300 315 317 321 324 326 334 329 313 311 304 285 280 274 282 295 295 292 291 290 288 291 290 291 291 290 289
204 200 199 208 224 238 163 190 214 170 246 279 287 277 260 272 281 295 302 304 302 302 307 310 303 303 309 304 284 279 288 299 295 290 288 290 289 286 286 282 283 283 278 275
226 217 228 251 257 249 221 225 247 237 241 268 273 274 264 261 273 284 287 289 289 294 297 302 304 303 304 305 296 286 297 298 289 285 289 292 290 291 290 285 278 274 271 271
228 198 231 253 268 282 253 231 239 260 266 273 281 269 258 260 274 276 282 282 279 292 298 298 289 290 294 304 304 306 307 301 292 287 285 288 287 286 285 282 275 278 271 274
207 199 209 236 225 212 241 238 261 258 266 268 274 285 277 257 265 278 282 282 284 291 300 303 299 297 300 304 302 306 304 293 287 288 285 283 283 282 281 284 294 293 293 297